Location: ??????????
(54.8537°N, 38.8755°E)
Time: 11:35:16
(UTC+00:00)

Tiros 1 despin weight - Pass Details

Date: 22 September 2024
Orbit: 572 x 614 km, 48.2° (Epoch: 10 October)

Event Time Altitude Azimuth Distance (km) Brightness Sun altitude
Rises 22:21:01 0° 223° (SW) 2,843 - -33.7°
Reaches altitude 10° 22:23:39 10° 209° (SSW) 1,950 - -33.6°
Maximum altitude 22:27:11 23° 157° (SSE) 1,295 - -33.4°
Drops below altitude 10° 22:30:47 10° 104° (ESE) 1,973 - -33.3°
Exits shadow 22:32:39 - 94° (E) 2,600 ? -33.2°
Sets 22:33:27 0° 91° (E) 2,884 ? -33.1°
